| time (UTC) | temp C | wind direction | speed KPH | gust KPH | rain 1hr cm | rain 24hr cm | rain mn cm | humidity % | barometer mb |
| 20260508023521 | 10 | 338 | 0.0 | 0.0 | 0.00 | 0.00 | 0.00 | 85 | 989.8 |
| 20260508020427 | 10 | 338 | 0.0 | 0.0 | 0.00 | 0.00 | 0.00 | 85 | 989.9 |
| 20260508013522 | 10 | 338 | 0.0 | 0.0 | 0.00 | 0.00 | 0.00 | 84 | 989.8 |
| 20260508010428 | 10 | 338 | 0.0 | 0.0 | 0.00 | 0.00 | 0.00 | 84 | 990.1 |
| 20260508003522 | 10 | 338 | 0.0 | 0.0 | 0.00 | 0.00 | 0.00 | 83 | 990.3 |
| 20260508000428 | 11 | 338 | 0.0 | 0.0 | 0.00 | 0.00 | 0.00 | 83 | 990.3 |
| 20260507233522 | 11 | 338 | 0.0 | 0.0 | 0.00 | 0.00 | 0.00 | 82 | 990.5 |
| 20260507230428 | 11 | 338 | 0.0 | 0.0 | 0.00 | 0.00 | 0.00 | 81 | 990.5 |
| 20260507224524 | 12 | 338 | 0.0 | 0.0 | 0.00 | 0.00 | 0.00 | 80 | 990.6 |
| 20260507223522 | 12 | 338 | 0.0 | 0.0 | 0.00 | 0.00 | 0.00 | 80 | 990.6 |
| 20260507214524 | 12 | 338 | 0.0 | 0.0 | 0.00 | 0.00 | 0.00 | 78 | 990.6 |
| 20260507213522 | 13 | 338 | 0.0 | 0.0 | 0.00 | 0.00 | 0.00 | 78 | 990.5 |
| 20260507204524 | 13 | 338 | 0.0 | 0.0 | 0.00 | 0.00 | 0.00 | 75 | 990.3 |
| 20260507203521 | 13 | 338 | 0.0 | 0.0 | 0.00 | 0.00 | 0.00 | 74 | 990.1 |
| 20260507194524 | 15 | 338 | 0.0 | 0.0 | 0.00 | 0.00 | 0.00 | 69 | 989.5 |
| 20260507193524 | 15 | 338 | 0.0 | 0.0 | 0.00 | 0.00 | 0.00 | 68 | 989.3 |
| 20260507184523 | 17 | 338 | 0.0 | 0.0 | 0.00 | 0.00 | 0.00 | 62 | 989.3 |
| 20260507183520 | 17 | 338 | 0.0 | 0.0 | 0.00 | 0.00 | 0.00 | 60 | 989.1 |
| 20260507174524 | 18 | 177 | 0.0 | 0.0 | 0.00 | 0.00 | 0.00 | 58 | 989.0 |
| 20260507173520 | 18 | 158 | 0.0 | 0.0 | 0.00 | 0.00 | 0.00 | 58 | 988.9 |
| 20260507164524 | 18 | 112 | 0.0 | 0.0 | 0.00 | 0.00 | 0.00 | 57 | 989.2 |
| 20260507163521 | 18 | 112 | 0.0 | 0.0 | 0.00 | 0.00 | 0.00 | 56 | 989.4 |
| 20260507154523 | 20 | 271 | 0.0 | 0.0 | 0.00 | 0.00 | 0.00 | 47 | 989.0 |
| 20260507153520 | 21 | 124 | 0.0 | 0.0 | 0.00 | 0.00 | 0.00 | 48 | 988.5 |
| 20260507144522 | 21 | 313 | 0.0 | 0.0 | 0.00 | 0.00 | 0.00 | 52 | 988.1 |
| 20260507143521 | 21 | 331 | 1.6 | 9.7 | 0.00 | 0.00 | 0.00 | 53 | 988.0 |
| 20260507134524 | 21 | 354 | 0.0 | 0.0 | 0.00 | 0.00 | 0.00 | 55 | 988.5 |
| 20260507133519 | 21 | 161 | 0.0 | 1.6 | 0.00 | 0.00 | 0.00 | 53 | 988.5 |
| 20260507124523 | 21 | 158 | 0.0 | 0.0 | 0.00 | 0.00 | 0.00 | 54 | 989.2 |
| 20260507123521 | 21 | 164 | 0.0 | 1.6 | 0.00 | 0.00 | 0.00 | 55 | 989.3 |
| 20260507114523 | 19 | 158 | 0.0 | 0.0 | 0.00 | 0.00 | 0.00 | 58 | 990.2 |
| 20260507113520 | 19 | 338 | 0.0 | 0.0 | 0.00 | 0.00 | 0.00 | 58 | 990.1 |
| 20260507104522 | 18 | 158 | 0.0 | 0.0 | 0.00 | 0.00 | 0.00 | 58 | 990.6 |
| 20260507103520 | 17 | 158 | 0.0 | 0.0 | 0.00 | 0.00 | 0.00 | 56 | 990.8 |
| 20260507094522 | 30 | 22 | 0.0 | 0.0 | 0.00 | 0.00 | 0.00 | 38 | 991.5 |
| 20260507093520 | 29 | 21 | 0.0 | 0.0 | 0.00 | 0.00 | 0.00 | 40 | 991.6 |
| 20260507084522 | 21 | 112 | 0.0 | 0.0 | 0.00 | 0.00 | 0.00 | 59 | 991.9 |
| 20260507083519 | 21 | 112 | 0.0 | 0.0 | 0.00 | 0.00 | 0.00 | 59 | 991.9 |
| 20260507074523 | 13 | 135 | 0.0 | 0.0 | 0.00 | 0.00 | 0.00 | 80 | 992.5 |
| 20260507073520 | 12 | 135 | 0.0 | 0.0 | 0.00 | 0.00 | 0.00 | 81 | 992.5 |
| 20260507070301 | 10 | 90 | 0.0 | 0.0 | 0.00 | 0.00 | 0.00 | 83 | 992.9 |
| 20260507063520 | 10 | 90 | 0.0 | 0.0 | 0.00 | 0.00 | 0.00 | 84 | 992.9 |
| 20260507060301 | 9 | 90 | 0.0 | 0.0 | 0.00 | 0.00 | 0.00 | 85 | 992.9 |
| 20260507053519 | 8 | 90 | 0.0 | 0.0 | 0.00 | 0.00 | 0.00 | 85 | 992.9 |
| 20260507050300 | 8 | 90 | 0.0 | 0.0 | 0.00 | 0.00 | 0.00 | 85 | 993.0 |
| 20260507043519 | 9 | 90 | 0.0 | 0.0 | 0.00 | 0.00 | 0.00 | 85 | 993.1 |
| 20260507040302 | 9 | 90 | 0.0 | 0.0 | 0.00 | 0.00 | 0.00 | 85 | 993.1 |
| 20260507033519 | 9 | 90 | 0.0 | 0.0 | 0.00 | 0.00 | 0.00 | 85 | 993.2 |
| 20260507030300 | 10 | 90 | 0.0 | 0.0 | 0.00 | 0.00 | 0.00 | 86 | 993.2 |